BEE025T EGGP-EGFF

Flight info

Callsign BEE025T
Flight time 0h 32m
Altitude 18000
Route REXAM DCT MONTY
Aircraft DH8D/M-SDE2E3FGRY/H

Departure

Time 2026-05-05 17:07
Airport Liverpool John Lennon Airport (EGGP)

Arrival

Time 2026-05-05 17:39
Airport Cardiff International Airport (EGFF)
Time Latitude Longitude Altitude Speed Heading
2026-05-05 16:39 53.33562 -2.85655 82 ft 0 kts 175°
2026-05-05 16:56 53.33561 -2.85655 82 ft 0 kts 175°
2026-05-05 16:57 53.33563 -2.85655 82 ft 1 kts 175°
2026-05-05 16:57 53.33573 -2.85656 82 ft 0 kts 175°
2026-05-05 16:57 53.33586 -2.85661 82 ft 2 kts 153°
2026-05-05 16:57 53.33598 -2.85676 82 ft 2 kts 129°
2026-05-05 16:58 53.33605 -2.85698 82 ft 2 kts 104°
2026-05-05 16:58 53.33606 -2.85718 82 ft 1 kts 85°
2026-05-05 16:58 53.33606 -2.85721 82 ft 0 kts 85°
2026-05-05 17:02 53.33606 -2.85720 82 ft 0 kts 85°
2026-05-05 17:02 53.33608 -2.85671 82 ft 6 kts 86°
2026-05-05 17:02 53.33613 -2.85576 82 ft 9 kts 86°
2026-05-05 17:02 53.33575 -2.85512 82 ft 9 kts 175°
2026-05-05 17:03 53.33513 -2.85481 82 ft 9 kts 124°
2026-05-05 17:03 53.33512 -2.85366 82 ft 10 kts 84°
2026-05-05 17:03 53.33517 -2.85239 82 ft 11 kts 85°
2026-05-05 17:03 53.33525 -2.85094 82 ft 15 kts 85°
2026-05-05 17:04 53.33537 -2.84860 82 ft 22 kts 86°
2026-05-05 17:04 53.33548 -2.84610 82 ft 23 kts 85°
2026-05-05 17:04 53.33561 -2.84310 82 ft 26 kts 85°
2026-05-05 17:04 53.33574 -2.84027 82 ft 23 kts 85°
2026-05-05 17:05 53.33585 -2.83777 82 ft 20 kts 85°
2026-05-05 17:05 53.33597 -2.83549 82 ft 18 kts 85°
2026-05-05 17:05 53.33586 -2.83358 82 ft 15 kts 123°
2026-05-05 17:05 53.33505 -2.83296 82 ft 13 kts 175°
2026-05-05 17:06 53.33454 -2.83289 82 ft 3 kts 181°
2026-05-05 17:06 53.33439 -2.83318 82 ft 3 kts 264°
2026-05-05 17:06 53.33439 -2.83328 82 ft 0 kts 265°
2026-05-05 17:06 53.33436 -2.83390 82 ft 31 kts 265°
2026-05-05 17:07 53.33390 -2.84370 83 ft 128 kts 265°
2026-05-05 17:07 53.33309 -2.86126 317 ft 164 kts 266°
2026-05-05 17:07 53.33240 -2.88077 1000 ft 181 kts 269°
2026-05-05 17:07 53.33125 -2.90329 1513 ft 206 kts 266°
2026-05-05 17:08 53.32950 -2.92739 2261 ft 213 kts 267°
2026-05-05 17:08 53.32786 -2.95159 3068 ft 214 kts 267°
2026-05-05 17:08 53.32633 -2.97633 3689 ft 223 kts 267°
2026-05-05 17:08 53.32491 -3.00196 4333 ft 231 kts 267°
2026-05-05 17:09 53.32350 -3.02900 4932 ft 235 kts 267°
2026-05-05 17:09 53.32214 -3.05664 5541 ft 240 kts 268°
2026-05-05 17:09 53.32085 -3.08440 6196 ft 244 kts 267°
2026-05-05 17:09 53.31878 -3.11249 6799 ft 250 kts 256°
2026-05-05 17:10 53.30913 -3.13735 7040 ft 271 kts 221°
2026-05-05 17:10 53.29139 -3.15041 7111 ft 281 kts 189°
2026-05-05 17:10 53.27226 -3.15156 6995 ft 279 kts 179°
2026-05-05 17:10 53.25307 -3.15137 7051 ft 271 kts 179°
2026-05-05 17:11 53.23486 -3.15141 7342 ft 256 kts 180°
2026-05-05 17:11 53.21732 -3.15173 7395 ft 252 kts 181°
2026-05-05 17:11 53.19978 -3.15231 7438 ft 250 kts 181°
2026-05-05 17:11 53.18238 -3.15309 7485 ft 248 kts 182°
2026-05-05 17:12 53.16526 -3.15402 7532 ft 247 kts 182°
2026-05-05 17:12 53.14823 -3.15505 7582 ft 245 kts 182°
2026-05-05 17:12 53.13121 -3.15617 7631 ft 244 kts 182°
2026-05-05 17:12 53.11385 -3.15742 8009 ft 255 kts 183°
2026-05-05 17:13 53.09611 -3.15882 8761 ft 258 kts 183°
2026-05-05 17:13 53.07840 -3.16019 9516 ft 259 kts 184°
2026-05-05 17:13 53.06037 -3.16159 10217 ft 261 kts 184°
2026-05-05 17:13 53.04225 -3.16300 10918 ft 264 kts 184°
2026-05-05 17:14 53.02399 -3.16443 11620 ft 267 kts 184°
2026-05-05 17:14 53.00551 -3.16587 12350 ft 269 kts 184°
2026-05-05 17:14 52.98692 -3.16733 13060 ft 272 kts 184°
2026-05-05 17:14 52.96802 -3.16881 13757 ft 274 kts 184°
2026-05-05 17:15 52.94910 -3.17029 14436 ft 276 kts 185°
2026-05-05 17:15 52.93002 -3.17179 15111 ft 277 kts 185°
2026-05-05 17:15 52.91067 -3.17330 15752 ft 279 kts 185°
2026-05-05 17:15 52.89112 -3.17483 16381 ft 281 kts 185°
2026-05-05 17:16 52.87156 -3.17520 16989 ft 284 kts 182°
2026-05-05 17:16 52.85189 -3.17458 17563 ft 286 kts 181°
2026-05-05 17:16 52.83181 -3.17397 17890 ft 298 kts 181°
2026-05-05 17:16 52.81057 -3.17340 17985 ft 313 kts 181°
2026-05-05 17:17 52.78870 -3.17278 17996 ft 316 kts 181°
2026-05-05 17:17 52.76688 -3.17212 17997 ft 314 kts 181°
2026-05-05 17:17 52.74496 -3.17152 17994 ft 313 kts 181°
2026-05-05 17:17 52.72342 -3.17097 17997 ft 312 kts 182°
2026-05-05 17:18 52.70146 -3.17043 17997 ft 312 kts 182°
2026-05-05 17:18 52.67984 -3.16991 17999 ft 311 kts 182°
2026-05-05 17:18 52.65823 -3.16941 17994 ft 311 kts 182°
2026-05-05 17:18 52.63671 -3.16891 17996 ft 311 kts 182°
2026-05-05 17:19 52.61512 -3.16842 17996 ft 311 kts 181°
2026-05-05 17:19 52.59356 -3.16793 17993 ft 310 kts 181°
2026-05-05 17:19 52.57200 -3.16744 17989 ft 310 kts 181°
2026-05-05 17:19 52.55044 -3.16696 17992 ft 310 kts 181°
2026-05-05 17:20 52.52903 -3.16648 17991 ft 310 kts 181°
2026-05-05 17:20 52.50734 -3.16600 17992 ft 310 kts 181°
2026-05-05 17:20 52.48600 -3.16553 17990 ft 310 kts 181°
2026-05-05 17:20 52.46429 -3.16505 17990 ft 310 kts 181°
2026-05-05 17:21 52.44289 -3.16458 17991 ft 310 kts 181°
2026-05-05 17:21 52.42112 -3.16410 17986 ft 310 kts 181°
2026-05-05 17:21 52.39963 -3.16363 17988 ft 310 kts 181°
2026-05-05 17:22 52.35666 -3.16269 17989 ft 310 kts 182°
2026-05-05 17:22 52.33521 -3.16222 17985 ft 310 kts 182°
2026-05-05 17:22 52.31364 -3.16174 17986 ft 310 kts 181°
2026-05-05 17:22 52.29207 -3.16127 17985 ft 310 kts 181°
2026-05-05 17:23 52.27044 -3.16080 17979 ft 309 kts 181°
2026-05-05 17:23 52.24911 -3.16033 17985 ft 309 kts 181°
2026-05-05 17:23 52.22750 -3.15986 17986 ft 309 kts 181°
2026-05-05 17:23 52.20617 -3.15940 17983 ft 309 kts 181°
2026-05-05 17:24 52.18457 -3.15893 17978 ft 309 kts 181°
2026-05-05 17:24 52.16318 -3.15846 17983 ft 309 kts 181°
2026-05-05 17:24 52.14148 -3.15800 17981 ft 309 kts 181°
2026-05-05 17:24 52.12006 -3.15753 17982 ft 309 kts 181°
2026-05-05 17:25 52.09865 -3.15707 17979 ft 309 kts 181°
2026-05-05 17:25 52.08434 -3.15676 17982 ft 309 kts 181°
2026-05-05 17:25 52.05569 -3.15613 17985 ft 309 kts 181°
2026-05-05 17:25 52.03421 -3.15567 17985 ft 309 kts 181°
2026-05-05 17:26 52.01274 -3.15521 17981 ft 309 kts 181°
2026-05-05 17:26 51.99138 -3.15475 17981 ft 309 kts 182°
2026-05-05 17:26 51.97003 -3.15429 17981 ft 309 kts 181°
2026-05-05 17:26 51.94857 -3.15382 17981 ft 309 kts 181°
2026-05-05 17:27 51.92686 -3.15338 17659 ft 320 kts 181°
2026-05-05 17:27 51.90420 -3.15293 17155 ft 329 kts 181°
2026-05-05 17:27 51.88143 -3.15231 16675 ft 317 kts 181°
2026-05-05 17:27 51.85990 -3.15169 16211 ft 306 kts 181°
2026-05-05 17:28 51.83908 -3.15113 15828 ft 293 kts 181°
2026-05-05 17:28 51.81941 -3.15061 15543 ft 279 kts 181°
2026-05-05 17:28 51.80046 -3.15013 15270 ft 266 kts 181°
2026-05-05 17:28 51.78229 -3.14996 14998 ft 255 kts 181°
2026-05-05 17:29 51.76479 -3.14994 14548 ft 253 kts 181°
2026-05-05 17:29 51.74715 -3.15000 14001 ft 254 kts 181°
2026-05-05 17:29 51.72955 -3.15011 13458 ft 256 kts 181°
2026-05-05 17:29 51.71192 -3.15030 12918 ft 257 kts 181°
2026-05-05 17:30 51.69413 -3.15053 12373 ft 258 kts 181°
2026-05-05 17:30 51.67623 -3.15081 11828 ft 259 kts 181°
2026-05-05 17:30 51.65814 -3.15112 11278 ft 259 kts 181°
2026-05-05 17:30 51.64031 -3.15149 10724 ft 260 kts 181°
2026-05-05 17:31 51.62223 -3.15187 10127 ft 262 kts 181°
2026-05-05 17:31 51.60397 -3.15233 9530 ft 264 kts 181°
2026-05-05 17:31 51.58557 -3.15288 8931 ft 265 kts 181°
2026-05-05 17:31 51.56741 -3.15353 8340 ft 265 kts 181°
2026-05-05 17:32 51.54918 -3.15091 7729 ft 265 kts 166°
2026-05-05 17:32 51.53164 -3.14210 7131 ft 264 kts 160°
2026-05-05 17:32 51.51435 -3.13292 6515 ft 263 kts 160°
2026-05-05 17:32 51.49697 -3.12376 5900 ft 263 kts 160°
2026-05-05 17:33 51.47968 -3.11471 5294 ft 263 kts 160°
2026-05-05 17:33 51.46248 -3.10580 4717 ft 262 kts 160°
2026-05-05 17:33 51.44539 -3.09702 4312 ft 254 kts 160°
2026-05-05 17:33 51.42898 -3.08866 3931 ft 246 kts 160°
2026-05-05 17:34 51.41232 -3.08295 3534 ft 242 kts 176°
2026-05-05 17:34 51.39575 -3.08342 3159 ft 237 kts 180°
2026-05-05 17:34 51.37949 -3.08412 2780 ft 233 kts 180°
2026-05-05 17:34 51.36341 -3.08488 2415 ft 228 kts 181°
2026-05-05 17:35 51.34869 -3.09037 2246 ft 210 kts 210°
2026-05-05 17:35 51.33928 -3.10627 2205 ft 194 kts 247°
2026-05-05 17:35 51.33401 -3.12615 2196 ft 195 kts 253°
2026-05-05 17:35 51.33332 -3.14675 2177 ft 184 kts 294°
2026-05-05 17:36 51.33929 -3.16442 2201 ft 181 kts 306°
2026-05-05 17:36 51.34547 -3.18163 2188 ft 176 kts 303°
2026-05-05 17:36 51.35106 -3.19906 2101 ft 178 kts 302°
2026-05-05 17:36 51.35695 -3.21742 1833 ft 189 kts 302°
2026-05-05 17:37 51.36269 -3.23566 1665 ft 173 kts 301°
2026-05-05 17:37 51.36612 -3.24687 1458 ft 168 kts 301°
2026-05-05 17:37 51.37275 -3.26797 1086 ft 153 kts 300°
2026-05-05 17:37 51.37732 -3.28238 879 ft 139 kts 300°
2026-05-05 17:38 51.38145 -3.29551 677 ft 123 kts 300°
2026-05-05 17:38 51.38511 -3.30701 508 ft 116 kts 301°
2026-05-05 17:38 51.38886 -3.31883 441 ft 128 kts 297°
2026-05-05 17:38 51.39276 -3.33115 239 ft 119 kts 299°
2026-05-05 17:39 51.39599 -3.34134 213 ft 79 kts 297°
2026-05-05 17:39 51.39804 -3.34782 213 ft 54 kts 297°
2026-05-05 17:39 51.39949 -3.35242 213 ft 30 kts 297°
2026-05-05 17:39 51.40027 -3.35483 213 ft 15 kts 297°
2026-05-05 17:40 51.40090 -3.35508 213 ft 10 kts 26°
2026-05-05 17:40 51.40139 -3.35447 213 ft 8 kts 57°
2026-05-05 17:40 51.40156 -3.35369 213 ft 8 kts 84°
2026-05-05 17:40 51.40131 -3.35232 213 ft 18 kts 116°
2026-05-05 17:41 51.40075 -3.35054 213 ft 17 kts 117°
2026-05-05 17:41 51.39993 -3.34793 213 ft 34 kts 117°
2026-05-05 17:41 51.39897 -3.34488 213 ft 24 kts 116°
2026-05-05 17:41 51.39850 -3.34340 213 ft 10 kts 103°
2026-05-05 17:42 51.39885 -3.34275 213 ft 3 kts 29°
2026-05-05 17:42 51.39892 -3.34243 213 ft 3 kts 108°
2026-05-05 17:42 51.39884 -3.34213 213 ft 2 kts 117°
2026-05-05 17:42 51.39880 -3.34200 213 ft 0 kts 117°
2026-05-05 17:43 51.39879 -3.34199 213 ft 0 kts 117°